Regional Weather Roundup
Issued by NWS

Home | Current Version | Previous Version | Text Only | Print | Product List | Glossary Off
Versions: 1 2 3 4 5 6 7 8 9 10 11 12 13 14 15 16 17 18 19 20 21 22 23 24 25 26 27 28 29 30 31 32 33 34 35 36 37 38 39 40 41 42 43 44 45 46 47 48 49 50

000
ASUS43 KMPX 280910
RWRMN
WEATHER ROUNDUP FOR MINNESOTA
NATIONAL WEATHER SERVICE TWIN CITIES/CHANHASSEN MN
400 AM CDT SAT MAY 28 2016


NOTE: "FAIR" INDICATES FEW OR NO CLOUDS BELOW 12,000 FEET WITH NO
SIGNIFICANT WEATHER AND/OR OBSTRUCTIONS TO VISIBILITY. N/A MEANS
CURRENT SKY AND/OR WEATHER CONDITIONS ARE NOT AVAILABLE.

MNZ060>063-068>070-281000-
   Twin Cities Metro

CITY           SKY/WX    TMP DP  RH WIND       PRES   REMARKS
TWIN CITIES    CLOUDY    62  60  93 NW5       29.76R
ST PAUL        CLOUDY    62  60  93 N7        29.76S
CRYSTAL        CLOUDY    61  58  90 N3        29.75R
BLAINE         CLOUDY    61  61 100 CALM      29.76S FOG
EDEN PRAIRIE   CLOUDY    62  59  90 N5        29.75R FOG
SOUTH ST PAUL  CLOUDY    62  60  93 NW3       29.75S FOG
LAKE ELMO      CLOUDY    61  61 100 NW3       29.76S FOG
$$
MNZ001>005-007-008-013>017-022>024-027-028-281000-
   Northwest Minnesota

CITY           SKY/WX    TMP DP  RH WIND       PRES   REMARKS
BEMIDJI        CLOUDY    55  54  94 CALM      29.83S
HALLOCK        DRIZZLE   63  57  82 SE6       29.84R
ROSEAU         CLOUDY    55  52  88 E6        29.85S
WARROAD        CLOUDY    57  54  88 CALM      29.86S
THIEF RVR FALL CLOUDY    57  54  88 NE3       29.86R
CROOKSTON      CLOUDY    61  57  88 E6        29.84R
FOSSTON        PTCLDY    52  50  93 CALM      29.84S
DETROIT LAKES  CLOUDY    55  54  94 E3        29.82F
MOORHEAD       MOCLDY    57  55  94 CALM      29.81S
PARK RAPIDS    CLOUDY    59  54  83 NE5       29.80F
MAHNOMEN       FAIR      54  52  94 NE5       29.82S
$$
MNZ006-009>011-018-025>026-281000-
   North Central Minnesota

CITY           SKY/WX    TMP DP  RH WIND       PRES   REMARKS
BAUDETTE       CLOUDY    58  53  84 CALM      29.84S
FLAG ISLAND    CLOUDY    61  55  82 NE5       29.85S
INTL FALLS     LGT RAIN  59  54  83 E8        29.84R
WASKISH        CLOUDY    57  55  94 NE3       29.83S
BIG FORK       DRIZZLE   55  54  94 NE5       29.84S
LONGVILLE      LGT RAIN  55  54  94 NE3       29.81F
GRAND RAPIDS   CLOUDY    55  54  96 W7        29.81F
CRANE LAKE     RAIN      54  54 100 N6        29.85F
ORR            DRIZZLE   55  52  88 CALM      29.79F
COOK           DRIZZLE   55  54  94 CALM      29.81F
WALKER         CLOUDY    57  54  87 NE3       29.82S
$$
MNZ012-019>021-037-281000-
   Northeast Minnesota

CITY           SKY/WX    TMP DP  RH WIND       PRES   REMARKS
DULUTH         DRIZZLE   52  51  97 CALM      29.77F FOG
ELY            RAIN      55  54  94 NE7       29.80S
HIBBING        CLOUDY    53  53 100 N6        29.79F FOG
EVELETH        CLOUDY    54  54 100 N5        29.79F FOG
DULUTH HARBOR  CLOUDY    45  43  93 NE6       29.79F FOG
TWO HARBORS    MIX PCPN  55  50  82 NE6       29.75F
SILVER BAY     DRIZZLE   55  54  94 NE7       29.76S
GRAND MARAIS     N/A     54  53  97 E9        29.78S
G MARAIS ARPRT RAIN      55  54  94 NE9       29.81F
$$
MNZ029>031-032-039>041-046>048-054>057-064-281000-
   West Central Minnesota

CITY           SKY/WX    TMP DP  RH WIND       PRES   REMARKS
FERGUS FALLS   CLOUDY    57  57 100 NE3       29.77S
WHEATON        CLOUDY    59  57  94 NE5       29.80R
MORRIS         MOCLDY    57  57 100 NE7       29.77S
ALEXANDRIA     CLOUDY    58  54  86 NE5       29.79F
ELBOW LAKE     CLOUDY    58  56  91 NE3       29.79S
WADENA         CLOUDY    55  54  94 N3        29.80F
GLENWOOD       CLOUDY    57  55  94 N8        29.78F
APPLETON       CLOUDY    61  57  88 E3        29.76F
ORTONVILLE     CLOUDY    61  57  88 E5        29.76F
MADISON        PTCLDY    63  57  82 NE3       29.76F
WILLMAR        MOCLDY    59  57  94 CALM      29.78S
$$
MNZ033>034-036-042>043-049>051-058-059-281000-
   Central Minnesota

CITY           SKY/WX    TMP DP  RH WIND       PRES   REMARKS
ST CLOUD       CLOUDY    57  55  93 N6        29.76S
SAUK CENTRE    CLOUDY    58  55  92 N6        29.78F
PAYNESVILLE    CLOUDY    59  59 100 CALM      29.78S
AITKIN         CLOUDY    57  54  88 N3        29.77F FOG
PINE RIVER     DRIZZLE   55  55 100 N6        29.84F
BRAINERD       CLOUDY    56  55  97 N8        29.79F FOG
STAPLES        CLOUDY    55  55 100 N3        29.79F
LONG PRAIRIE   CLOUDY    55  54  94 CALM      29.79F
LITTLE FALLS   CLOUDY    55  54  94 NW5       29.78S
LITCHFIELD     CLOUDY    61  61 100 N3        29.78R
BUFFALO        CLOUDY    58  56  94 N5        29.79R FOG
MAPLE LAKE     CLOUDY    59  58  97 CALM      29.78R FOG
HUTCHINSON     CLOUDY    60  60  99 N5        29.77S
$$
MNZ037-044-045-052-053-281000-
   East Central Minnesota

CITY           SKY/WX    TMP DP  RH WIND       PRES   REMARKS
PRINCETON        N/A     57  55  94 N5        29.77R
MORA           CLOUDY    54  52  94 CALM      29.79R FOG
CAMBRIDGE      CLOUDY    59  52  77 CALM      29.76R
RUSH CITY      CLOUDY    56  55  95 CALM      29.77R
MOOSE LAKE     CLOUDY    50  50 100 N3        29.75F FOG
HINCKLEY       CLOUDY    52  52 100 NE5       29.78R FOG
CLOQUET        CLOUDY    50  48  93 CALM      29.77F FOG
MCGREGOR       CLOUDY    55  54  94 N5        29.79S
$$
MNZ071>073-080-081-089-090-097-098-281000-
   Southwest Minnesota

CITY           SKY/WX    TMP DP  RH WIND       PRES   REMARKS
MONTEVIDEO     CLOUDY    59  57  94 CALM      29.78S
GRANITE FALLS  MOCLDY    59  57  94 N6        29.76F
CANBY          CLOUDY    64  61  88 NE5       29.76F
MARSHALL       CLOUDY    61  58  90 NE7       29.75F
REDWOOD FALLS  CLOUDY    59  57  93 NE6       29.74S
OLIVIA         CLOUDY    55  54  94 NE7       29.74F FOG
PIPESTONE      CLOUDY    61  59  94 NE5       29.74R FOG
WINDOM         CLOUDY    64  61  88 CALM      29.74R
WORTHINGTON    LGT RAIN  62  60  93 SW14      29.73S
JACKSON        CLOUDY    64  61  88 CALM      29.74S
TRACY          CLOUDY    61  60  97 NE7       29.75R FOG
SLAYTON        LGT RAIN  60  60 100 NE6       29.75S VSB 1/2
$$
MNZ065>067-074>077-082>085-091>093-281000-
   South Central Minnesota

CITY           SKY/WX    TMP DP  RH WIND       PRES   REMARKS
MANKATO        CLOUDY    63  59  88 NE8       29.74F
NEW ULM        CLOUDY    61  61 100 E13G20    29.74S
ST JAMES       CLOUDY    57  57 100 N7        29.74F FOG
FAIRMONT       CLOUDY    64  61  88 E3        29.73S
GLENCOE        CLOUDY    60  60 100 N5        29.76R FOG
FARIBAULT      CLOUDY    61  59  94 NW2       29.76S VSB 3/4
OWATONNA       CLOUDY    61  59  94 NW6       29.74F FOG
WASECA         CLOUDY    63  61  94 NE6       29.75F FOG
ALBERT LEA     CLOUDY    63  63 100 CALM      29.73F FOG
$$
MNZ078>079-086>088-094>096-281000-
   Southeast Minnesota

CITY           SKY/WX    TMP DP  RH WIND       PRES   REMARKS
ROCHESTER      LGT RAIN  62  62 100 NE8       29.76R FOG
RED WING         N/A     63  61  94 SE3       29.74S FOG
STANTON        FOG       61  59  94 CALM      29.75S VSB 3/4
DODGE CENTER   CLOUDY    61  61 100 NW6       29.74F FOG
WINONA         CLOUDY    66  64  94 CALM      29.74F
AUSTIN         LGT RAIN  63  61  94 CALM      29.72F
PRESTON        LGT RAIN  62  61  95 NE7       29.74F VSB 1
$$
ABBREVIATIONS USED IN REMARKS
   TC - TEMPERATURES IN CELSIUS
  WCI - WIND CHILL INDEX
   HX - HEAT INDEX
  VSB - VISIBILITY
$$




USA.gov is the U.S. government's official web portal to all federal, state and local government web resources and services.